Flag for Argentina Weather past 2 weeks in Zárate, Buenos Aires, Argentina

Now
61 °F

Fog.


Feels Like: 61 °F
Forecast: 59 / 83 °F
Wind: 2 mph from Southeast

Location: Buenos Aires Airport

Current Time: Aug 20, 2014 at 2:57:56 AM

Latest Report: Aug 20, 2014 at 2:00 AM


Visibility: N/A

Pressure: 30.07 "Hg

Humidity: 94%

Dew point: 59 °F

Location of ZárateLocation

Historic Weather in Zárate — Graph

°F

Zárate temperature yesterday

Maximum temperature yesterday: 70 °F (at 4:00 PM)
Minimum temperature yesterday: 59 °F (at 5:00 AM)
Average temperature yesterday: 63 °F

Past Weeks' High & Low Weather Summary

 TemperatureHumidityPressure
High72 °F (Aug 18, 3:00 PM)100% (Aug 17, 6:00 AM)30.42 "Hg (Aug 17, 6:00 AM)
Low43 °F (Aug 13, 5:00 AM)13% (Aug 13, 4:00 PM)29.80 "Hg (Aug 6, 4:00 PM)
Average57 °F61%30.15 "Hg
* Reported Aug 5 1:00 AM — Aug 20 1:00 AM, Zárate, Weather by CustomWeather, © 2014

Note: Actual official high and low records may vary slightly from our data, if they occured in-between our weather recording intervals... More about our weather records

Advertising

Zárate weather history for previous 24 hours

 ConditionsComfort  
Time TempWeatherWind HumidityBarometerVisibility
1:00 AM
Aug 20
61 °FClear.2 mph88%30.07 "Hg10 mi
12:00 AM63 °FClear.7 mph88%30.07 "Hg10 mi
11:00 PM
Aug 19
63 °FPassing clouds.9 mph88%30.09 "HgN/A
10:00 PM63 °FClear.7 mph88%30.09 "Hg10 mi
9:00 PM63 °FClear.10 mph83%30.09 "Hg10 mi
8:00 PM64 °FClear.14 mph78%30.09 "Hg10 mi
7:00 PM66 °FPassing clouds.8 mph73%30.07 "HgN/A
6:00 PM68 °FClear.8 mph73%30.07 "Hg10 mi
5:00 PM70 °FSunny.7 mph69%30.07 "Hg10 mi
4:00 PM70 °FSunny.3 mph64%30.07 "Hg10 mi
3:00 PM68 °FSunny.3 mph64%30.07 "Hg10 mi
2:00 PM66 °FSunny.5 mph78%30.09 "Hg10 mi
1:00 PM66 °FSunny.5 mph73%30.09 "Hg10 mi
12:00 PM64 °FSunny.5 mph78%30.12 "Hg10 mi
11:00 AM63 °FPassing clouds.5 mph83%30.12 "HgN/A
10:00 AM63 °FSunny.5 mph77%30.09 "Hg10 mi
9:00 AM61 °FPassing clouds.5 mph88%30.09 "HgN/A
8:00 AM59 °FPassing clouds.5 mph88%30.07 "HgN/A
7:00 AM59 °FSunny.3 mph88%30.07 "Hg10 mi
6:00 AM61 °FClear.5 mph77%30.04 "Hg10 mi
5:00 AM59 °FClear.7 mph82%30.04 "Hg10 mi
4:00 AM61 °FClear.10 mph77%30.01 "Hg10 mi
3:00 AM61 °FClear.8 mph77%30.01 "Hg10 mi
2:00 AM61 °FClear.6 mph77%30.01 "Hg10 mi
Weather by CustomWeather, © 2014

See weather overviewHow to use our weather pages